{"data":{"norad_id":62134,"epoch":"2026-05-25T00:57:49.499136Z","epoch_age_seconds":61741,"freshness":"FRESH","line1":"1 62134U 24222W   26145.04015624  .00013991  00000+0  51705-3 0  9991","line2":"2 62134  42.9997  61.7206 0000560 250.2120 109.8671 15.27574481 84359","mean_motion":15.27574481,"eccentricity":5.6e-5,"inclination_deg":42.9997,"raan_deg":61.7206,"arg_perigee_deg":250.212,"mean_anomaly_deg":109.8671,"bstar":0.00051705,"rev_number":8435,"period_min":94.267089291602,"perigee_km":482.68139461403,"apogee_km":483.44984930769,"semimajor_km":6861.2026219609,"source":"CELESTRAK","updated_at":"2026-05-25T13:38:19.567314Z"}}